Weather History for Peru, IL

Change the Weather History Date:

Monday, July 1, 2013

  Actual Average Record
Temperature  
Mean Temperature 67 °F -  
Max Temperature 77 °F 84 °F 99 °F (1970)
Min Temperature 57 °F 60 °F 45 °F (1988)
Cooling Degree Days 2    
Growing Degree Days 17 (Base 50)    
Moisture  
Dew Point 50 °F    
Average Humidity 56    
Maximum Humidity 81    
Minimum Humidity 34    
Precipitation  
Precipitation 0.00 in - - ()
Sea Level Pressure  
Sea Level Pressure 30.03 in    
Wind  
Wind Speed 11 mph (NE)    
Max Wind Speed 21 mph    
Max Gust Speed 26 mph    
Visibility 10 miles    
Events      
Averages and records for this station are not official NWS values.
T = Trace of Precipitation, MM = Missing Value Source: NWS Daily Summary

Daily Weather History Graph

Daily Weather History Graph

Search for Another Location

Airport:

Trip Planner

Search our weather history database for the weather conditions in past years. The results will help you decide how hot, cold, wet, or windy it might be!

Date:

Astronomy

Jul. 01, 2013 Rise Set
Actual Time 5:27 AM CDT 8:33 PM CDT
Civil Twilight 4:53 AM CDT 9:07 PM CDT
Nautical Twilight 4:10 AM CDT 9:50 PM CDT
Astronomical Twilight 3:19 AM CDT 10:41 PM CDT
Moon 12:59 AM CDT (7/1) 2:46 PM CDT (7/1)
Length of Visible Light 16h 13m
Length of Day
15h 06m
Waning Crescent, 35% of the Moon is Illuminated
Jul 1
Waning Crescent
Jul 8
New
Jul 15
First Quarter
Jul 22
Full
Jul 29
Last Quarter

Hourly Weather History & Observations

Time (CDT) Temp. Dew Point Humidity Pressure Visibility Wind Dir Wind Speed Gust Speed Precip Events Conditions
12:15 AM 60.4 °F 48.7 °F 65% 30.00 in 10.0 mi NNE 6.9 mph - N/A   Clear
12:35 AM 59.9 °F 50.0 °F 70% 30.00 in 10.0 mi NNE 8.1 mph - N/A   Clear
12:55 AM 60.1 °F 48.9 °F 67% 29.99 in 10.0 mi NNE 8.1 mph - N/A   Scattered Clouds
1:15 AM 59.9 °F 49.5 °F 68% 29.99 in 10.0 mi NNE 8.1 mph - N/A   Scattered Clouds
1:35 AM 59.9 °F 49.6 °F 69% 29.99 in 10.0 mi North 8.1 mph - N/A   Clear
1:55 AM 59.9 °F 49.8 °F 69% 29.99 in 10.0 mi North 9.2 mph - N/A   Clear
2:15 AM 59.0 °F 49.5 °F 71% 29.99 in 10.0 mi North 8.1 mph - N/A   Clear
2:35 AM 58.6 °F 49.6 °F 72% 29.99 in 10.0 mi NNE 9.2 mph - N/A   Clear
2:55 AM 58.3 °F 50.0 °F 74% 29.99 in 10.0 mi NNE 6.9 mph - N/A   Clear
3:15 AM 57.6 °F 50.0 °F 76% 29.99 in 10.0 mi NNE 6.9 mph - N/A   Clear
3:35 AM 58.6 °F 50.0 °F 73% 29.99 in 10.0 mi NNE 9.2 mph - N/A   Mostly Cloudy
3:55 AM 59.9 °F 50.2 °F 70% 29.99 in 10.0 mi NNE 10.4 mph - N/A   Scattered Clouds
4:15 AM 59.9 °F 49.5 °F 68% 29.99 in 10.0 mi NNE 8.1 mph - N/A   Clear
4:35 AM 59.9 °F 49.5 °F 68% 30.00 in 10.0 mi NNE 9.2 mph - N/A   Clear
4:55 AM 59.2 °F 50.2 °F 72% 30.00 in 10.0 mi NNE 9.2 mph - N/A   Clear
5:15 AM 57.9 °F 50.4 °F 76% 30.00 in 10.0 mi NNE 9.2 mph - N/A   Clear
5:35 AM 57.4 °F 50.9 °F 79% 30.01 in 10.0 mi NNE 8.1 mph - N/A   Clear
5:55 AM 57.4 °F 51.3 °F 80% 30.01 in 10.0 mi NNE 9.2 mph - N/A   Clear
6:15 AM 57.4 °F 51.6 °F 81% 30.02 in 10.0 mi NNE 9.2 mph - N/A   Clear
6:35 AM 58.3 °F 51.8 °F 79% 30.03 in 10.0 mi NNE 8.1 mph - N/A   Clear
6:55 AM 59.9 °F 51.8 °F 75% 30.03 in 10.0 mi NNE 9.2 mph - N/A   Clear
7:15 AM 60.8 °F 51.8 °F 72% 30.03 in 10.0 mi NNE 8.1 mph - N/A   Clear
7:35 AM 63.1 °F 51.4 °F 66% 30.04 in 10.0 mi NNE 10.4 mph 17.3 mph N/A   Clear
7:55 AM 64.4 °F 50.0 °F 59% 30.04 in 10.0 mi NE 11.5 mph 17.3 mph N/A   Clear
8:15 AM 65.3 °F 50.5 °F 59% 30.05 in 10.0 mi NNE 12.7 mph 17.3 mph N/A   Clear
8:35 AM 66.2 °F 50.7 °F 57% 30.05 in 10.0 mi NNE 11.5 mph 17.3 mph N/A   Clear
8:55 AM 67.8 °F 50.0 °F 53% 30.05 in 10.0 mi NE 13.8 mph 18.4 mph N/A   Clear
9:15 AM 68.9 °F 48.9 °F 49% 30.05 in 10.0 mi NE 16.1 mph - N/A   Clear
9:35 AM 69.8 °F 50.0 °F 49% 30.05 in 10.0 mi NE 13.8 mph 20.7 mph N/A   Clear
9:55 AM 71.1 °F 50.2 °F 48% 30.05 in 10.0 mi NE 16.1 mph 21.9 mph N/A   Clear
10:15 AM 71.6 °F 50.2 °F 47% 30.05 in 10.0 mi NE 17.3 mph - N/A   Clear
10:35 AM 72.7 °F 50.9 °F 46% 30.05 in 10.0 mi NE 13.8 mph 20.7 mph N/A   Clear
10:55 AM 73.4 °F 50.9 °F 45% 30.05 in 10.0 mi NE 18.4 mph - N/A   Clear
11:15 AM 73.6 °F 50.0 °F 43% 30.04 in 10.0 mi NE 19.6 mph - N/A   Clear
11:35 AM 74.1 °F 50.2 °F 43% 30.04 in 10.0 mi NE 15.0 mph 23.0 mph N/A   Clear
11:55 AM 75.2 °F 49.6 °F 41% 30.04 in 10.0 mi NE 19.6 mph - N/A   Clear
12:15 PM 75.2 °F 48.4 °F 39% 30.04 in 10.0 mi NE 19.6 mph - N/A   Clear
12:35 PM 75.6 °F 50.7 °F 42% 30.04 in 10.0 mi NNE 17.3 mph 24.2 mph N/A   Clear
12:55 PM 76.1 °F 50.9 °F 41% 30.04 in 10.0 mi NE 19.6 mph 25.3 mph N/A   Clear
1:15 PM 76.8 °F 51.1 °F 40% 30.03 in 10.0 mi NE 18.4 mph 21.9 mph N/A   Clear
1:35 PM 76.8 °F 50.7 °F 40% 30.03 in 10.0 mi NE 18.4 mph - N/A   Clear
1:55 PM 76.6 °F 48.4 °F 37% 30.04 in 10.0 mi NE 16.1 mph 25.3 mph N/A   Clear
2:15 PM 77.0 °F 47.8 °F 36% 30.03 in 10.0 mi NE 20.7 mph 25.3 mph N/A   Clear
2:35 PM 77.4 °F 47.1 °F 34% 30.03 in 10.0 mi NE 20.7 mph 26.5 mph N/A   Clear
2:55 PM 77.4 °F 47.7 °F 35% 30.03 in 10.0 mi NNE 18.4 mph 26.5 mph N/A   Clear
3:15 PM 77.0 °F 47.3 °F 35% 30.03 in 10.0 mi NNE 18.4 mph 25.3 mph N/A   Clear
3:35 PM 77.0 °F 47.7 °F 35% 30.03 in 10.0 mi NE 19.6 mph 25.3 mph N/A   Clear
3:55 PM 77.0 °F 48.0 °F 36% 30.04 in 10.0 mi NE 18.4 mph 23.0 mph N/A   Clear
4:15 PM 77.0 °F 48.9 °F 37% 30.04 in 10.0 mi NE 16.1 mph 23.0 mph N/A   Clear
4:35 PM 75.7 °F 47.5 °F 37% 30.04 in 10.0 mi ENE 18.4 mph - N/A   Clear
4:55 PM 75.6 °F 48.7 °F 39% 30.04 in 10.0 mi NE 18.4 mph - N/A   Clear
5:15 PM 75.4 °F 48.2 °F 38% 30.04 in 10.0 mi NE 17.3 mph - N/A   Clear
5:35 PM 75.2 °F 47.7 °F 38% 30.03 in 10.0 mi NE 19.6 mph 25.3 mph N/A   Clear
5:55 PM 75.0 °F 48.2 °F 39% 30.04 in 10.0 mi NE 18.4 mph 25.3 mph N/A   Clear
6:15 PM 73.9 °F 48.0 °F 40% 30.04 in 10.0 mi NE 18.4 mph 21.9 mph N/A   Clear
6:35 PM 73.4 °F 49.8 °F 43% 30.04 in 10.0 mi NE 16.1 mph 21.9 mph N/A   Clear
6:55 PM 72.9 °F 51.1 °F 46% 30.05 in 10.0 mi NE 16.1 mph - N/A   Clear
7:15 PM 72.7 °F 51.8 °F 48% 30.05 in 10.0 mi NE 12.7 mph - N/A   Clear
7:35 PM 71.6 °F 52.2 °F 50% 30.05 in 10.0 mi NE 10.4 mph - N/A   Clear
7:55 PM 70.5 °F 52.7 °F 53% 30.05 in 10.0 mi NE 10.4 mph - N/A   Clear
8:15 PM 69.8 °F 52.7 °F 54% 30.05 in 10.0 mi NNE 10.4 mph - N/A   Clear
8:35 PM 68.5 °F 52.7 °F 57% 30.05 in 10.0 mi NNE 8.1 mph - N/A   Clear
8:55 PM 67.5 °F 52.5 °F 59% 30.05 in 10.0 mi NE 10.4 mph - N/A   Clear
9:15 PM 68.0 °F 52.2 °F 57% 30.06 in 10.0 mi NNE 11.5 mph - N/A   Clear
9:35 PM 66.7 °F 52.2 °F 59% 30.06 in 10.0 mi NE 10.4 mph - N/A   Clear
9:55 PM 66.2 °F 52.2 °F 61% 30.07 in 10.0 mi NE 9.2 mph - N/A   Clear
10:15 PM 64.4 °F 53.6 °F 68% 30.07 in 10.0 mi NNE 6.9 mph - N/A   Clear
10:35 PM 63.7 °F 53.6 °F 70% 30.07 in 10.0 mi NNE 8.1 mph - N/A   Clear
10:55 PM 63.3 °F 52.7 °F 68% 30.07 in 10.0 mi NNE 6.9 mph - N/A   Clear
11:15 PM 63.7 °F 51.6 °F 65% 30.07 in 10.0 mi NNE 8.1 mph - N/A   Clear
11:35 PM 63.1 °F 51.3 °F 65% 30.07 in 10.0 mi NNE 8.1 mph - N/A   Clear
11:55 PM 62.4 °F 52.3 °F 70% 30.07 in 10.0 mi NNE 9.2 mph - N/A   Clear